Weather History for Bluefield, WV

Change the Weather History Date:

Monday, February 4, 2013

  Actual Average Record
Temperature  
Mean Temperature 32 °F 35 °F  
Max Temperature 43 °F 44 °F 65 °F (1962)
Min Temperature 21 °F 27 °F -8 °F (1970)
Degree Days  
Heating Degree Days 33 30  
Month to date heating degree days 159 120  
Since 1 July heating degree days 2735 2840  
Cooling Degree Days 0 0  
Month to date cooling degree days 0 0  
Year to date cooling degree days 1 0  
Moisture  
Dew Point 18 °F    
Average Humidity 60    
Maximum Humidity 77    
Minimum Humidity 43    
Precipitation  
Precipitation 0.00 in 0.09 in 1.41 in (1975)
Month to date precipitation 0.41 0.38  
Year to date precipitation 6.41 3.28  
Snow  
Snow 0.00 in - - ()
Month to date snowfall 6.0  
Since 1 July snowfall 34.5  
Snow Depth 4.00 in    
Sea Level Pressure  
Sea Level Pressure 30.00 in    
Wind  
Wind Speed 12 mph (West)    
Max Wind Speed 22 mph    
Max Gust Speed 32 mph    
Visibility 10 miles    
Events      
T = Trace of Precipitation, MM = Missing Value Source: NWS Daily Summary

Daily Weather History Graph

Daily Weather History Graph

Search for Another Location

Airport:

Trip Planner

Search our weather history database for the weather conditions in past years. The results will help you decide how hot, cold, wet, or windy it might be!

Date:

Astronomy

Feb. 04, 2013 Rise Set
Actual Time 7:25 AM EST 5:52 PM EST
Civil Twilight 6:57 AM EST 6:20 PM EST
Nautical Twilight 6:26 AM EST 6:51 PM EST
Astronomical Twilight 5:56 AM EST 7:21 PM EST
Moon 1:57 AM EST (2/4) 12:17 PM EST (2/4)
Length of Visible Light 11h 22m
Length of Day
10h 27m
Last Quarter, 37% of the Moon is Illuminated
Feb 4
Last Quarter
Feb 10
New
Feb 17
First Quarter
Feb 25
Full
Mar 4
Last Quarter

Hourly Weather History & Observations

Time (EST) Temp. Windchill Dew Point Humidity Pressure Visibility Wind Dir Wind Speed Gust Speed Precip Events Conditions
12:52 AM 21.9 °F 7.8 °F 15.1 °F 75% 30.06 in 10.0 mi WNW 17.3 mph 29.9 mph 0.00 in   Overcast
1:43 AM 21.2 °F 6.8 °F 12.2 °F 68% 29.98 in 9.0 mi WNW 17.3 mph 28.8 mph N/A   Scattered Clouds
1:52 AM 21.0 °F 7.6 °F 12.0 °F 68% 30.05 in 10.0 mi WNW 15.0 mph 27.6 mph N/A   Partly Cloudy
2:37 AM 21.2 °F 9.5 °F 12.2 °F 68% 29.98 in 10.0 mi WNW 11.5 mph 21.9 mph N/A   Mostly Cloudy
2:52 AM 21.0 °F 8.6 °F 12.9 °F 71% 30.05 in 10.0 mi WNW 12.7 mph 19.6 mph N/A   Overcast
3:52 AM 21.0 °F 9.9 °F 12.9 °F 71% 30.05 in 10.0 mi WNW 10.4 mph 23.0 mph N/A   Overcast
6:52 AM 21.0 °F 11.4 °F 14.0 °F 74% 30.07 in 10.0 mi WNW 8.1 mph - N/A   Overcast
7:52 AM 21.0 °F 11.4 °F 15.1 °F 78% 30.09 in 10.0 mi WNW 8.1 mph - N/A   Overcast
8:52 AM 21.9 °F 13.4 °F 15.1 °F 75% 30.12 in 10.0 mi West 6.9 mph - N/A   Overcast
9:52 AM 24.1 °F 16.0 °F 16.0 °F 71% 30.09 in 10.0 mi WSW 6.9 mph - N/A   Scattered Clouds
10:52 AM 27.0 °F 19.5 °F 16.0 °F 63% 30.07 in 10.0 mi WSW 6.9 mph - N/A   Clear
11:52 AM 30.9 °F 25.2 °F 16.0 °F 54% 30.05 in 10.0 mi WSW 5.8 mph - N/A   Clear
12:52 PM 36.0 °F 28.5 °F 17.1 °F 46% 30.01 in 10.0 mi WSW 10.4 mph - N/A   Mostly Cloudy
1:52 PM 39.0 °F 32.3 °F 19.9 °F 46% 29.98 in 10.0 mi West 10.4 mph - N/A   Partly Cloudy
2:52 PM 39.9 °F 31.4 °F 21.9 °F 49% 29.95 in 10.0 mi WSW 16.1 mph 20.7 mph N/A   Overcast
3:52 PM 41.0 °F 35.2 °F 21.9 °F 47% 29.94 in 10.0 mi WSW 9.2 mph - N/A   Overcast
4:52 PM 42.1 °F 36.6 °F 21.0 °F 43% 29.91 in 10.0 mi SW 9.2 mph - N/A   Overcast
5:52 PM 42.1 °F 36.1 °F 21.9 °F 45% 29.91 in 10.0 mi WSW 10.4 mph - N/A   Overcast
6:52 PM 43.0 °F 34.8 °F 21.9 °F 43% 29.92 in 10.0 mi West 18.4 mph 27.6 mph N/A   Overcast
7:52 PM 42.1 °F 34.5 °F 21.9 °F 45% 29.92 in 10.0 mi WSW 15.0 mph 23.0 mph N/A   Overcast
8:52 PM 41.0 °F 32.5 °F 23.0 °F 49% 29.94 in 10.0 mi WSW 17.3 mph 25.3 mph N/A   Overcast
9:52 PM 41.0 °F 33.9 °F 21.9 °F 47% 29.93 in 10.0 mi West 12.7 mph - N/A   Overcast
10:52 PM 41.0 °F 33.9 °F 21.9 °F 47% 29.92 in 10.0 mi West 12.7 mph 23.0 mph N/A   Overcast
11:52 PM 41.0 °F 32.5 °F 21.9 °F 47% 29.91 in 10.0 mi West 17.3 mph 26.5 mph N/A   Overcast